Location: Brodeslavy
(49.9527°N, 13.5567°E)
Time: 05:06:48
(UTC+00:00)

Landsat 5 - Pass Details

Date: 17 June 2025
Orbit: 509 x 610 km, 98.1° (Epoch: 12 July)

Event Time Altitude Azimuth Distance (km) Brightness Sun altitude
Rises 22:57:59 0° 8° (N) 2,873 8.7 -16.6°
Reaches altitude 10° 23:00:16 10° 1° (N) 1,955 7.5 -16.6°
Maximum altitude 23:04:15 41° 292° (WNW) 871 4.5 -16.6°
Enters shadow 23:06:50 19° 231° (SW) 1,419 5.0 -16.6°
